Home > Weather > Nashville > Past weeks

Flag for USA Past Weather in Nashville, Tennessee, USA — Yesterday and Last 2 Weeks

Now
77 °F

Partly sunny.


Feels Like: 78 °F
Forecast: 73 / 78 °F
Wind: 6 mph from Southwest

Location: Nashville International Airport

Current Time: Jul 28, 2016 at 7:37:42 AM

Latest Report: Jul 28, 2016 at 6:53 AM


Visibility: 10 mi

Pressure: 29.91 "Hg

Humidity: 88%

Dew Point: 73 °F

Location of NashvilleLocation

Past Weather in Nashville — Graph

°F

Nashville Temperature Yesterday

Maximum temperature yesterday: 92 °F (at 12:53 PM)
Minimum temperature yesterday: 74 °F (at 3:53 AM)
Average temperature yesterday: 84 °F

High & Low Weather Summary for the Past Weeks

 TemperatureHumidityPressure
High96 °F (Jul 18, 2:53 PM)94% (Jul 27, 3:53 AM)30.23 "Hg (Jul 27, 3:53 AM)
Low70 °F (Jul 17, 5:53 AM)38% (Jul 20, 1:53 PM)29.86 "Hg (Jul 27, 5:53 PM)
Average83 °F69%30.05 "Hg
* Reported Jul 13 5:53 AM — Jul 28 5:53 AM, Nashville, Weather by CustomWeather, © 2016

Note: Actual official high and low records may vary slightly from our data, if they occured in-between our weather recording intervals... More about our weather records

Advertising

Nashville Weather History for the Previous 24 Hours

Scroll right to see more
 ConditionsComfort  
Time TempWeatherWind HumidityBarometerVisibility
5:53 AM
Thu, Jul 28
76 °FMostly cloudy.5 mph91%29.91 "Hg10 mi
4:53 AM76 °FOvercast.No wind91%29.90 "Hg10 mi
3:53 AM75 °FMostly cloudy.No wind88%29.91 "Hg10 mi
2:53 AM75 °FLow clouds.5 mph90%29.91 "Hg10 mi
1:53 AM79 °FRain. Overcast.6 mph79%29.92 "Hg4 mi
12:53 AM81 °FMostly cloudy.5 mph72%29.93 "Hg10 mi
11:53 PM
Wed, Jul 27
83 °FPassing clouds.7 mph65%29.93 "Hg10 mi
10:53 PM84 °FPassing clouds.7 mph63%29.92 "Hg10 mi
9:53 PM83 °FPartly cloudy.3 mph68%29.92 "Hg10 mi
8:53 PM86 °FPassing clouds.7 mph59%29.90 "Hg10 mi
7:53 PM86 °FBroken clouds.5 mph61%29.90 "Hg10 mi
6:53 PM89 °FBroken clouds.8 mph53%29.90 "Hg10 mi
5:53 PM91 °FScattered clouds.12 mph49%29.86 "Hg10 mi
4:53 PM89 °FBroken clouds.9 mph59%29.90 "Hg10 mi
3:53 PM88 °FPartly sunny.6 mph59%29.92 "Hg10 mi
2:53 PM92 °FThunderstorms. Broken clouds.9 mph51%29.93 "Hg10 mi
1:53 PM91 °FThunderstorms. Broken clouds.9 mph60%29.95 "Hg10 mi
1:04 PM91 °FThundershowers. Broken clouds.7 mph52%30.00 "Hg10 mi
12:53 PM92 °FBroken clouds.6 mph52%29.97 "Hg10 mi
11:53 AM90 °FScattered clouds.3 mph57%29.99 "Hg10 mi
10:53 AM87 °FScattered clouds.3 mph63%29.99 "Hg10 mi
9:53 AM85 °FBroken clouds.3 mph65%30.01 "Hg10 mi
8:53 AM83 °FScattered clouds.6 mph72%30.00 "Hg10 mi
7:53 AM79 °FScattered clouds.3 mph82%30.01 "Hg10 mi
Weather by CustomWeather, © 2016

See weather overviewHow to use our weather pages